Regional Weather Roundup
Issued by NWS Burlington, VT

Home | Current Version | Previous Version | Text Only | Print | Product List | Glossary On
Versions: 1 2 3 4 5 6 7 8 9 10 11 12 13 14 15 16 17 18 19 20 21 22 23 24 25 26 27 28 29 30 31 32 33 34 35 36 37 38 39 40 41 42 43 44 45 46 47 48 49 50
000
ASUS41 KBTV 270030
RWRBTV
VERMONT REGIONAL WEATHER ROUNDUP
NATIONAL WEATHER SERVICE BURLINGTON VT
800 PM EDT WED APR 26 2017

NOTE: "FAIR" INDICATES FEW OR NO CLOUDS BELOW 12,000 FEET WITH NO
SIGNIFICANT WEATHER AND/OR OBSTRUCTIONS TO VISIBILITY.

* THESE REPORTS ARE NOT UNDER NWS QUALITY CONTROL AND/OR DO NOT
  REPORT WEATHER SUCH AS PRECIPITATION AND FOG.

VTZ001>019-270100-
_____VERMONT_____


CITY           SKY/WX    TMP DP  RH WIND       PRES   REMARKS
BURLINGTON     CLOUDY    64  55  72 SE13      29.77F
6HR MIN TEMP:  64; 6HR MAX TEMP:  73;

MONTPELIER     CLOUDY    57  56  96 CALM      29.87S
6HR MIN TEMP:  54; 6HR MAX TEMP:  60; 6HR PCP:  0.01;

MORRISVILLE    CLOUDY    58  53  84 S3        29.83S
6HR MIN TEMP:  58; 6HR MAX TEMP:  63;

ST. JOHNSBURY*   N/A     59  57  93 MISG      29.82R
6HR MIN TEMP:  59; 6HR MAX TEMP:  64;

LYNDONVILLE*   CLOUDY    60  53  78 CALM      29.85R
6HR MIN TEMP:  58; 6HR MAX TEMP:  64;

MIDDLEBURY*    FAIR      60  52  76 SE10G21   29.80S
6HR MIN TEMP:  60; 6HR MAX TEMP:  66;

RUTLAND*       MOCLDY    57  54  88 SE9       29.82R
6HR MIN TEMP:  57; 6HR MAX TEMP:  63;

SPRINGFIELD    CLOUDY    55  52  89 CALM      29.86R
6HR MIN TEMP:  55; 6HR MAX TEMP:  57; 6HR PCP:  0.02;

HIGHGATE*      FAIR      64  56  74 SE5       29.77S
6HR MIN TEMP:  62; 6HR MAX TEMP:  72;

NEWPORT*       CLOUDY    62  55  78 SE5       29.83R
6HR MIN TEMP:  61; 6HR MAX TEMP:  65;

BENNINGTON     CLOUDY    61  52  72 E8G17     29.80R
6HR MIN TEMP:  61; 6HR MAX TEMP:  70;

SUTTON*          N/A     59 N/A N/A MISG        N/A
MT. MANSFIELD*   N/A     50 N/A N/A SE15        N/A

_____LAKE CHAMPLAIN_____


CITY           SKY/WX    TMP DP  RH WIND       PRES   REMARKS
BURTON ISLAND*   N/A     61  55  82 SE1         N/A
COLCHESTER RF*   N/A     66  55  68 SE14        N/A
DIAMOND ISL*     N/A     64  55  72 SW8         N/A

$$

NYZ007-026>031-035-052-083-087-270100-
_____NORTHERN NEW YORK_____


CITY           SKY/WX    TMP DP  RH WIND       PRES   REMARKS
PLATTSBURGH    CLOUDY    60  54  80 CALM      29.76S
6HR MIN TEMP:  60; 6HR MAX TEMP:  68;

SARANAC LAKE   MOCLDY    62  56  80 E5        29.77R
6HR MIN TEMP:  62; 6HR MAX TEMP:  70;

MASSENA        CLEAR     61  55  81 E5        29.78R
6HR MIN TEMP:  61; 6HR MAX TEMP:  66;

OGDENSBURG*    FAIR      61  55  81 NE7       29.75F
6HR MIN TEMP:  63; 6HR MAX TEMP:  72;

POTSDAM*       CLEAR     59  57  94 NE5       29.76S
WATERTOWN      CLEAR     68  58  70 N3        29.71S
6HR MIN TEMP:  68; 6HR MAX TEMP:  75;

FT DRUM        PTCLDY    69  58  66 E3        29.72R
6HR MIN TEMP:  69; 6HR MAX TEMP:  74; 6HR PCP: TRACE;

ALBANY         CLOUDY    65  56  72 W3        29.78R
6HR MIN TEMP:  65; 6HR MAX TEMP:  73;

GLENS FALLS    PTCLDY    64  54  69 N5        29.77R
6HR MIN TEMP:  64; 6HR MAX TEMP:  71;


$$
NHZ002-005-011-270100-
_____NEW HAMPSHIRE_____


CITY           SKY/WX    TMP DP  RH WIND       PRES   REMARKS
LEBANON        CLOUDY    58  53  84 SE8       29.85R
6HR MIN TEMP:  58; 6HR MAX TEMP:  60; 6HR PCP:  0.01;

KEENE          CLOUDY    56  53  90 NE8       29.83
6HR MIN TEMP:  55; 6HR MAX TEMP:  58; 6HR PCP:  0.05;

MT WASHINGTON  FOG       45  45 100 SE32        N/A  VSB 1/8
6HR MIN TEMP:  44; 6HR MAX TEMP:  47; 6HR PCP:  0.08;

PLYMOUTH       CLOUDY    55  52  90 CALM      29.87S
6HR MIN TEMP:  53; 6HR MAX TEMP:  55; 6HR PCP:  0.01;

WHITEFIELD     PTCLDY    56  49  77 E12G18    29.85R
6HR MIN TEMP:  56; 6HR MAX TEMP:  64;


$$

_____REGIONAL QUEBEC LOCATIONS_____


CITY           SKY/WX    TMP DP  RH WIND       PRES   REMARKS
MONTREAL       CLOUDY    57  54  88 N16       29.79R
QUEBEC CITY    CLOUDY    48  46  93 NE9       29.88F FOG
SHERBROOKE     CLEAR     59  54  82 SE7       29.82S

_____REGIONAL ONTARIO LOCATIONS_____


CITY           SKY/WX    TMP DP  RH WIND       PRES   REMARKS
OTTAWA         PTCLDY    59  54  82 NE7       29.77F

______KEY______
VSB  - VISIBILITY IN MILES
WCI  - WIND CHILL INDEX
HX   - HEAT INDEX
$$
NNNN




USA.gov is the U.S. government's official web portal to all federal, state and local government web resources and services.